Date String (YYYY-MM-DD hh:mm:ss) UTC,Instrument flags,Ambient pressure (hPa),Sample flow (lpm),Bypass flow (lpm),Sample temperature (°C),Ambient temperature (°C),ASC tube jacket temperature (°C),LED temperature (°C),Box temperature (°C),Sample RH (%),Span deviation,Mass concentration (μg/m³),Mass concentration (μg/m³),Mass concentration (μg/m³)
DateTimeUTC,F1_M11,P_M11,Q1_M11,Q2_M11,T1_M11,T2_M11,T3_M11,T4_M11,T5_M11,U1_M11,ZSPAN_M11,X0_M11,X2_M11,X1_M11
2022-03-05 12:00:00,,0815.2,5.00,0.00,24.5,23.7,00.0,33.6,26.3,18.8,-000.3,0009.91,0006.58,0006.15
2022-03-05 12:01:00,,0815.2,5.00,0.00,24.5,23.7,00.0,33.5,26.3,18.7,-000.2,0010.13,0006.70,0006.27
2022-03-05 12:02:00,,0815.2,5.00,0.00,24.5,23.6,00.0,33.5,26.2,18.7,0000.2,0010.35,0006.86,0006.42
2022-03-05 12:03:00,,0815.2,5.00,0.00,24.4,23.5,00.0,33.5,26.2,18.6,0000.5,0011.25,0007.07,0006.59
2022-03-05 12:04:00,,0815.3,5.00,0.00,24.4,23.5,00.0,33.5,26.1,18.6,0000.4,0011.63,0007.28,0006.77
2022-03-05 12:05:00,,0815.3,5.00,0.00,24.4,23.5,00.0,33.5,26.1,18.6,0000.4,0012.04,0007.54,0006.97
2022-03-05 12:06:00,,0815.3,4.99,0.00,24.4,23.6,00.0,33.5,26.1,18.6,0000.8,0012.43,0007.76,0007.15
2022-03-05 12:07:00,,0815.3,5.00,0.00,24.4,23.6,00.0,33.5,26.1,18.6,0001.0,0012.68,0007.92,0007.32
2022-03-05 12:08:00,,0815.3,5.00,0.00,24.3,23.5,00.0,33.5,26.1,18.6,0001.4,0012.89,0008.10,0007.46
2022-03-05 12:09:00,,0815.3,5.00,0.00,24.3,23.5,00.0,33.4,26.1,18.6,0001.4,0013.18,0008.28,0007.58
2022-03-05 12:10:00,,0815.2,5.00,0.00,24.3,23.4,00.0,33.4,26.0,18.6,0001.4,0013.36,0008.41,0007.69
2022-03-05 12:11:00,,0815.2,5.00,0.00,24.3,23.4,00.0,33.4,26.0,18.6,0001.6,0013.44,0008.50,0007.76
2022-03-05 12:12:00,,0815.3,5.01,0.00,24.2,23.3,00.0,33.4,26.0,18.6,0002.0,0013.54,0008.57,0007.80
2022-03-05 12:13:00,,0815.2,5.01,0.00,24.2,23.3,00.0,33.4,25.9,18.6,0001.6,0013.47,0008.55,0007.82
2022-03-05 12:14:00,,0815.2,5.00,0.00,24.2,23.3,00.0,33.4,25.9,18.7,0001.3,0012.64,0008.48,0007.79
2022-03-05 12:15:00,,0815.2,4.99,0.00,24.2,23.3,00.0,33.3,25.9,18.7,0001.4,0012.50,0008.42,0007.76
2022-03-05 12:16:00,,0815.3,5.00,0.00,24.1,23.3,00.0,33.3,25.9,18.8,0001.5,0012.43,0008.37,0007.70
2022-03-05 12:17:00,,0815.2,5.00,0.00,24.1,23.2,00.0,33.3,25.9,18.8,0001.3,0012.42,0008.34,0007.63
2022-03-05 12:18:00,,0815.2,5.00,0.00,24.1,23.3,00.0,33.3,25.9,18.8,0001.1,0012.35,0008.30,0007.57
2022-03-05 12:19:00,,0815.3,5.00,0.00,24.1,23.2,00.0,33.3,25.9,18.8,0000.7,0012.23,0008.21,0007.52
2022-03-05 12:20:00,,0815.3,5.01,0.00,24.1,23.2,00.0,33.2,25.8,18.9,0000.5,0012.10,0008.15,0007.49
2022-03-05 12:21:00,,0815.2,5.00,0.00,24.1,23.2,00.0,33.2,25.8,18.9,0000.4,0012.04,0008.11,0007.46
2022-03-05 12:22:00,,0815.2,5.00,0.00,24.0,23.2,00.0,33.2,25.8,18.9,0000.2,0012.04,0008.12,0007.47
2022-03-05 12:23:00,,0815.2,5.00,0.00,24.0,23.2,00.0,33.2,25.8,18.9,-000.1,0012.03,0008.14,0007.48
2022-03-05 12:24:00,,0815.2,5.00,0.00,24.0,23.1,00.0,33.2,25.7,18.9,-000.0,0012.20,0008.22,0007.51
2022-03-05 12:25:00,,0815.2,5.01,0.00,24.0,23.1,00.0,33.2,25.7,18.9,-000.0,0012.40,0008.29,0007.53
2022-03-05 12:26:00,,0815.2,5.01,0.00,24.0,23.0,00.0,33.1,25.6,18.9,0000.1,0012.34,0008.31,0007.56
2022-03-05 12:27:00,,0815.2,4.99,0.00,23.9,22.9,00.0,33.1,25.6,18.9,0000.2,0012.40,0008.37,0007.63
2022-03-05 12:28:00,,0815.2,5.00,0.00,23.9,22.9,00.0,33.1,25.5,18.9,0000.5,0012.35,0008.42,0007.74
2022-03-05 12:29:00,,0815.3,5.00,0.00,23.9,22.9,00.0,33.1,25.5,18.9,0000.5,0012.52,0008.50,0007.85
2022-03-05 12:30:00,,0815.2,5.00,0.00,23.8,22.8,00.0,33.0,25.5,19.0,0000.6,0012.94,0008.63,0007.94
2022-03-05 12:31:00,,0815.3,5.01,0.00,23.8,22.8,00.0,33.0,25.5,19.0,0000.5,0013.27,0008.78,0008.03
2022-03-05 12:32:00,,0815.3,5.00,0.00,23.8,22.8,00.0,33.0,25.5,19.0,0000.6,0013.51,0008.91,0008.13
2022-03-05 12:33:00,,0815.3,4.99,0.00,23.8,22.8,00.0,33.0,25.4,19.0,0000.8,0013.97,0009.05,0008.23
2022-03-05 12:34:00,,0815.2,4.99,0.00,23.7,22.8,00.0,32.9,25.4,19.0,0000.7,0014.15,0009.09,0008.28
2022-03-05 12:35:00,,0815.3,5.00,0.00,23.7,22.7,00.0,32.9,25.4,19.0,0000.7,0014.40,0009.14,0008.36
2022-03-05 12:36:00,,0815.3,5.00,0.00,23.7,22.7,00.0,32.9,25.3,18.9,0000.8,0014.82,0009.21,0008.47
2022-03-05 12:37:00,,0815.3,5.01,0.00,23.7,22.7,00.0,32.9,25.3,18.9,0000.7,0015.01,0009.32,0008.54
2022-03-05 12:38:00,,0815.3,5.00,0.00,23.6,22.7,00.0,32.9,25.3,18.9,0000.8,0015.04,0009.38,0008.59
2022-03-05 12:39:00,,0815.3,5.00,0.00,23.6,22.6,00.0,32.8,25.2,18.9,0000.6,0015.06,0009.41,0008.61
2022-03-05 12:40:00,,0815.3,4.99,0.00,23.6,22.6,00.0,32.8,25.2,18.9,0000.3,0015.02,0009.47,0008.64
2022-03-05 12:41:00,,0815.3,5.00,0.00,23.6,22.6,00.0,32.8,25.2,18.9,0000.3,0014.86,0009.50,0008.68
2022-03-05 12:42:00,,0815.3,4.99,0.00,23.5,22.7,00.0,32.8,25.2,18.9,0000.2,0015.30,0009.52,0008.72
2022-03-05 12:43:00,,0815.3,5.01,0.00,23.5,22.7,00.0,32.8,25.1,18.9,0000.2,0015.74,0009.56,0008.79
2022-03-05 12:44:00,,0815.3,4.99,0.00,23.5,22.7,00.0,32.7,25.1,19.0,-000.3,0015.64,0009.56,0008.80
2022-03-05 12:45:00,,0815.3,5.00,0.00,23.5,22.7,00.0,32.7,25.2,18.9,-000.4,0015.64,0009.64,0008.83
2022-03-05 12:46:00,,0815.3,5.00,0.00,23.5,22.7,00.0,32.7,25.2,18.9,-000.4,0015.61,0009.73,0008.86
2022-03-05 12:47:00,,0815.3,5.00,0.00,23.5,22.7,00.0,32.7,25.2,18.8,-000.5,0015.82,0009.78,0008.87
2022-03-05 12:48:00,,0815.3,5.01,0.00,23.5,22.7,00.0,32.7,25.1,18.8,-000.5,0016.37,0009.84,0008.93
2022-03-05 12:49:00,,0815.3,5.00,0.00,23.5,22.7,00.0,32.7,25.1,18.7,-000.5,0017.69,0009.88,0008.97
2022-03-05 12:50:00,,0815.3,5.01,0.00,23.5,22.7,00.0,32.7,25.1,18.6,-000.5,0017.94,0009.96,0009.01
2022-03-05 12:51:00,,0815.3,5.01,0.00,23.5,22.7,00.0,32.6,25.1,18.6,-000.2,0018.45,0010.03,0009.06
2022-03-05 12:52:00,,0815.3,5.01,0.00,23.5,22.7,00.0,32.6,25.1,18.5,0000.0,0018.37,0010.02,0009.10
2022-03-05 12:53:00,,0815.3,4.99,0.00,23.5,22.7,00.0,32.6,25.1,18.5,0000.3,0017.93,0010.03,0009.13
2022-03-05 12:54:00,,0815.3,5.00,0.00,23.5,22.7,00.0,32.6,25.1,18.4,0000.4,0017.52,0010.02,0009.15
2022-03-05 12:55:00,,0815.3,4.99,0.00,23.5,22.7,00.0,32.6,25.1,18.4,0000.7,0017.78,0010.05,0009.19
2022-03-05 12:56:00,,0815.4,5.00,0.00,23.4,22.7,00.0,32.6,25.1,18.4,0000.9,0017.88,0010.10,0009.22
2022-03-05 12:57:00,,0815.3,5.01,0.00,23.5,22.8,00.0,32.6,25.1,18.4,0001.0,0017.96,0010.09,0009.25
2022-03-05 12:58:00,,0815.2,5.00,0.00,23.4,22.7,00.0,32.6,25.1,18.4,0001.1,0017.52,0010.06,0009.26
2022-03-05 12:59:00,,0815.2,5.00,0.00,23.5,22.8,00.0,32.6,25.2,18.4,0001.1,0017.08,0010.04,0009.24
